TimeCST,TemperatureF,Dew PointF,Humidity,Sea Level PressureIn,VisibilityMPH,Wind Direction,Wind SpeedMPH,Gust SpeedMPH,PrecipitationIn,Events,Conditions,WindDirDegrees,DateUTC
12:15 AM,50.4,44.6,81,29.94,10.0,NW,9.2,-,N/A,,Overcast,320,2012-12-04 06:15:00
12:35 AM,50.0,44.2,81,29.95,10.0,NW,6.9,-,N/A,,Overcast,310,2012-12-04 06:35:00
12:55 AM,49.1,43.7,82,29.96,10.0,NW,8.1,-,N/A,,Mostly Cloudy,310,2012-12-04 06:55:00
1:15 AM,48.2,43.0,82,29.96,10.0,NW,6.9,-,N/A,,Scattered Clouds,320,2012-12-04 07:15:00
1:35 AM,48.0,42.3,80,29.97,10.0,NW,12.7,-,N/A,,Mostly Cloudy,320,2012-12-04 07:35:00
1:55 AM,47.7,41.4,79,29.99,10.0,NW,9.2,-,N/A,,Scattered Clouds,310,2012-12-04 07:55:00
2:15 AM,46.9,41.0,80,29.99,10.0,NW,6.9,-,N/A,,Clear,320,2012-12-04 08:15:00
2:35 AM,46.4,40.6,80,30.00,10.0,NW,8.1,-,N/A,,Clear,320,2012-12-04 08:35:00
2:55 AM,46.4,40.6,80,30.00,10.0,NW,6.9,-,N/A,,Clear,320,2012-12-04 08:55:00
3:15 AM,45.5,40.6,83,30.00,10.0,NW,5.8,-,N/A,,Clear,320,2012-12-04 09:15:00
3:35 AM,45.5,40.5,83,30.02,10.0,NW,5.8,-,N/A,,Clear,320,2012-12-04 09:35:00
3:55 AM,45.5,40.5,83,30.03,10.0,NW,5.8,-,N/A,,Clear,310,2012-12-04 09:55:00
4:15 AM,45.3,40.3,83,30.04,10.0,WNW,5.8,-,N/A,,Clear,300,2012-12-04 10:15:00
4:35 AM,44.6,40.5,85,30.05,10.0,WNW,6.9,-,N/A,,Clear,290,2012-12-04 10:35:00
4:55 AM,44.2,40.1,85,30.06,10.0,West,5.8,-,N/A,,Clear,280,2012-12-04 10:55:00
5:15 AM,43.7,39.6,85,30.06,10.0,West,4.6,-,N/A,,Clear,270,2012-12-04 11:15:00
5:35 AM,42.8,39.4,88,30.06,10.0,West,6.9,-,N/A,,Clear,270,2012-12-04 11:35:00
5:55 AM,43.0,39.4,87,30.07,10.0,West,8.1,-,N/A,,Clear,270,2012-12-04 11:55:00
6:15 AM,42.4,39.2,88,30.07,10.0,WNW,6.9,-,N/A,,Clear,290,2012-12-04 12:15:00
6:35 AM,42.8,38.8,86,30.08,10.0,West,6.9,-,N/A,,Clear,280,2012-12-04 12:35:00
6:55 AM,41.9,38.5,88,30.09,10.0,West,6.9,-,N/A,,Clear,280,2012-12-04 12:55:00
7:15 AM,41.5,38.3,88,30.09,10.0,West,8.1,-,N/A,,Clear,280,2012-12-04 13:15:00
7:35 AM,41.0,37.6,88,30.10,10.0,West,6.9,-,N/A,,Clear,270,2012-12-04 13:35:00
7:55 AM,40.6,37.4,88,30.11,10.0,West,6.9,-,N/A,,Clear,280,2012-12-04 13:55:00
8:15 AM,41.4,37.6,86,30.11,10.0,West,5.8,-,N/A,,Clear,280,2012-12-04 14:15:00
8:35 AM,42.1,37.6,84,30.11,10.0,West,5.8,-,N/A,,Clear,270,2012-12-04 14:35:00
8:55 AM,43.3,38.1,82,30.12,10.0,West,4.6,-,N/A,,Clear,270,2012-12-04 14:55:00
9:15 AM,43.9,37.9,80,30.12,10.0,West,3.5,-,N/A,,Clear,260,2012-12-04 15:15:00
9:55 AM,45.9,38.1,74,30.13,10.0,West,4.6,-,N/A,,Clear,280,2012-12-04 15:55:00
10:15 AM,47.5,37.4,68,30.13,10.0,WNW,6.9,-,N/A,,Clear,290,2012-12-04 16:15:00
10:35 AM,49.3,38.1,65,30.14,10.0,WNW,8.1,-,N/A,,Clear,290,2012-12-04 16:35:00
10:55 AM,50.9,36.1,57,30.13,10.0,WNW,10.4,-,N/A,,Clear,290,2012-12-04 16:55:00
11:15 AM,51.8,35.2,53,30.12,10.0,WNW,13.8,-,N/A,,Clear,290,2012-12-04 17:15:00
11:35 AM,52.3,33.3,48,30.12,10.0,WNW,10.4,-,N/A,,Clear,290,2012-12-04 17:35:00
11:55 AM,53.1,34.2,49,30.11,10.0,West,13.8,-,N/A,,Clear,270,2012-12-04 17:55:00
12:15 PM,53.6,33.3,46,30.11,10.0,West,13.8,-,N/A,,Clear,280,2012-12-04 18:15:00
12:35 PM,54.3,34.7,48,30.11,10.0,West,12.7,-,N/A,,Clear,270,2012-12-04 18:35:00
12:55 PM,55.0,33.3,44,30.11,10.0,West,15.0,18.4,N/A,,Clear,280,2012-12-04 18:55:00
1:15 PM,55.6,33.1,43,30.10,10.0,West,13.8,-,N/A,,Clear,280,2012-12-04 19:15:00
1:35 PM,56.3,32.4,40,30.09,10.0,West,13.8,18.4,N/A,,Clear,280,2012-12-04 19:35:00
1:55 PM,56.8,32.0,39,30.09,10.0,West,17.3,21.9,N/A,,Clear,280,2012-12-04 19:55:00
2:15 PM,57.0,31.6,38,30.10,10.0,West,16.1,-,N/A,,Clear,280,2012-12-04 20:15:00
2:35 PM,56.5,31.6,39,30.10,10.0,West,18.4,-,N/A,,Clear,280,2012-12-04 20:35:00
2:55 PM,56.3,31.8,39,30.11,10.0,West,15.0,-,N/A,,Clear,280,2012-12-04 20:55:00
3:15 PM,56.1,31.6,39,30.12,10.0,WNW,12.7,-,N/A,,Clear,290,2012-12-04 21:15:00
3:35 PM,55.4,30.6,39,30.13,10.0,WNW,15.0,18.4,N/A,,Clear,290,2012-12-04 21:35:00
3:55 PM,53.8,31.6,43,30.14,10.0,WNW,9.2,-,N/A,,Clear,300,2012-12-04 21:55:00
4:15 PM,52.2,31.5,45,30.14,10.0,WNW,10.4,-,N/A,,Clear,290,2012-12-04 22:15:00
4:35 PM,50.9,30.6,46,30.15,10.0,WNW,12.7,-,N/A,,Clear,300,2012-12-04 22:35:00
4:55 PM,50.2,30.7,47,30.16,10.0,WNW,10.4,-,N/A,,Clear,300,2012-12-04 22:55:00
5:15 PM,46.8,32.0,57,30.17,10.0,WNW,8.1,-,N/A,,Clear,300,2012-12-04 23:15:00
5:35 PM,44.1,31.8,62,30.17,10.0,WNW,8.1,-,N/A,,Clear,290,2012-12-04 23:35:00
5:55 PM,41.9,31.1,66,30.18,10.0,West,6.9,-,N/A,,Clear,280,2012-12-04 23:55:00
6:15 PM,40.6,31.6,70,30.18,10.0,West,8.1,-,N/A,,Clear,280,2012-12-05 00:15:00
6:35 PM,39.2,31.6,74,30.18,10.0,West,9.2,-,N/A,,Clear,280,2012-12-05 00:35:00
6:55 PM,38.7,31.5,75,30.18,10.0,West,9.2,-,N/A,,Clear,280,2012-12-05 00:55:00
7:15 PM,39.6,31.8,74,30.20,10.0,WNW,4.6,-,N/A,,Clear,300,2012-12-05 01:15:00
7:35 PM,39.4,31.5,73,30.20,10.0,WNW,6.9,-,N/A,,Clear,290,2012-12-05 01:35:00
7:55 PM,37.8,30.9,76,30.21,10.0,West,6.9,-,N/A,,Clear,280,2012-12-05 01:55:00
8:15 PM,35.1,29.7,81,30.21,10.0,WSW,6.9,-,N/A,,Clear,250,2012-12-05 02:15:00
8:35 PM,34.9,29.5,81,30.22,10.0,Calm,Calm,-,N/A,,Clear,0,2012-12-05 02:35:00
8:55 PM,34.9,30.2,83,30.23,10.0,Calm,Calm,-,N/A,,Clear,0,2012-12-05 02:55:00
9:15 PM,35.4,29.7,80,30.24,10.0,Calm,Calm,-,N/A,,Clear,0,2012-12-05 03:15:00
9:35 PM,34.2,29.1,82,30.24,10.0,NW,6.9,-,N/A,,Clear,310,2012-12-05 03:35:00
9:55 PM,37.0,29.3,74,30.26,10.0,NW,8.1,-,N/A,,Clear,320,2012-12-05 03:55:00
10:15 PM,36.5,28.9,74,30.26,10.0,NW,8.1,-,N/A,,Clear,320,2012-12-05 04:15:00
10:35 PM,36.0,28.4,74,30.27,10.0,NW,8.1,-,N/A,,Clear,320,2012-12-05 04:35:00
10:55 PM,35.8,28.4,75,30.29,10.0,NW,8.1,-,N/A,,Clear,320,2012-12-05 04:55:00
11:15 PM,35.6,28.2,75,30.29,10.0,NNW,8.1,-,N/A,,Clear,330,2012-12-05 05:15:00
11:35 PM,35.2,28.4,76,30.31,10.0,North,6.9,-,N/A,,Clear,350,2012-12-05 05:35:00
11:55 PM,33.8,28.4,81,30.31,10.0,North,6.9,-,N/A,,Clear,350,2012-12-05 05:55:00